Regional Weather Roundup
Issued by NWS Sterling, VA

Home | Current Version | Previous Version | Graphics & Text | Print | Product List | Glossary On
Versions: 1 2 3 4 5 6 7 8 9 10 11 12 13 14 15 16 17 18 19 20 21 22 23 24 25 26 27 28 29 30 31 32 33 34 35 36 37 38 39 40 41 42 43 44 45 46 47 48 49
000
ASUS41 KLWX 221210
RWRLWX

REGIONAL WEATHER ROUNDUP
NATIONAL WEATHER SERVICE BALTIMORE MD/WASHINGTON DC
800 AM EDT MON SEP 22 2014

Note: "FAIR" indicates few or no clouds below 12,000 feet
with no significant weather and/or obstructions to visibility.
 TC=TEMPERATURE CELSIUS

 * =Non NWS site. Station does not report precipitation (e.g. rain,
    snow, etc.), thunder, or fog.

DCZ001-MDZ009-015-VAZ040>042-051-053>054-221300-
WASHINGTON METRO

CITY           SKY/WX    TMP DP  RH WIND       PRES   REMARKS
WASHINGTON NAT MOSUNNY   67  49  52 NW14G21   29.96R
DULLES         MOSUNNY   61  50  67 NW7       29.98R
ANDREWS AFB    SUNNY     64  50  59 NW14      29.95R
QUANTICO       MOSUNNY   62  51  67 NW7       29.97R
COLLEGE PARK*  SUNNY     64  50  59 W7        29.94R
LEESBURG*      PTSUNNY   63  54  72 NW12G20   29.98R
MANASSAS*      SUNNY     63  52  67 NW9       29.97R
GAITHERSBURG*  MOSUNNY   61  48  63 NW7       30.00R

$$

MDZ006>007-011-014-221300-
BALTIMORE METRO

CITY           SKY/WX    TMP DP  RH WIND       PRES   REMARKS
BWI AIRPORT    MOSUNNY   62  50  64 W9        29.93R
MD SCIENCE CTR   N/A     65  49  56 MISG      29.93R
MARTIN STATE   SUNNY     64  52  63 W12       29.93R
ANNAPOLIS      SUNNY     63  50  62 NW7       29.94R
FORT MEADE*    SUNNY     57  50  77 W5        29.96R

$$

MDZ012-015-019>023-221300-
MARYLAND EASTERN SHORE

CITY           SKY/WX    TMP DP  RH WIND       PRES   REMARKS
OCEAN CITY     SUNNY     65  50  58 VRB3      29.92R
SALISBURY      SUNNY     67  51  56 NW7       29.92R
BAY BRIDGE AP*   N/A     64  50  59 W10G17    29.93R
CAMBRIDGE*     SUNNY     66  50  55 W7        29.92R
EASTON*        SUNNY     66  54  63 NW10      29.96R

$$

MDZ017>025-221300-
SOUTHERN MARYLAND

CITY           SKY/WX    TMP DP  RH WIND       PRES   REMARKS
PATUXENT RIVER MOSUNNY   66  47  50 W9        29.93R
ST INIGOES     SUNNY     67  47  48 NW10G17   29.93R
LEONARDTOWN*   SUNNY     63  46  55 W6        29.95R

$$

MDZ003>005-221300-
NORTH CENTRAL MARYLAND

CITY           SKY/WX    TMP DP  RH WIND       PRES   REMARKS
FREDERICK*     SUNNY     64  54  68 NW10      29.99R
HAGERSTOWN APT SUNNY     58  48  69 NW10      29.98R
WESTMINSTER*   SUNNY     59  50  72 W10G17    29.95R

$$

MDZ501>502-221300-
WESTERN MARYLAND

CITY           SKY/WX    TMP DP  RH WIND       PRES   REMARKS
OAKLAND*       CLOUDY    45 N/A N/A NW8G16    30.04R FOG
CUMBERLAND*    PTSUNNY   59  48  67 NW5       30.06R

$$

VAZ025>031-221300-
SHENANDOAH VALLEY

CITY           SKY/WX    TMP DP  RH WIND       PRES   REMARKS
WINCHESTER*    CLOUDY    61  48  63 NW8       30.00R
STAUNTON*      CLOUDY    59  47  63 NW5       30.04R

$$

WVZ021-048>050-054>055-221300-
EASTERN WEST VIRGINIA PANHANDLE

CITY           SKY/WX    TMP DP  RH WIND       PRES   REMARKS
MARTINSBURG    PTSUNNY   61  45  55 NW6       30.00R
PETERSBURG*    CLOUDY    58  45  60 NW7       30.05R

$$

VAZ036>039-050-221300-
CENTRAL FOOTHILLS

CITY           SKY/WX    TMP DP  RH WIND       PRES   REMARKS
CHARLOTTESVILL SUNNY     61  48  62 W3        29.99R
ORANGE*        SUNNY     61  46  59 S5        29.99R

$$

VAZ055>057-221300-
NORTH AND CENTRAL PIEDMONT

CITY           SKY/WX    TMP DP  RH WIND       PRES   REMARKS
FREDERICKSBRG* SUNNY     64  50  61 NW6       29.96R
STAFFORD*      SUNNY     58  51  77 W6        30.00R

$$

NCZ024-NYZ072-PAZ021-071-VAZ022-071-221300-
OTHER REGIONAL OBSERVATIONS

CITY           SKY/WX    TMP DP  RH WIND       PRES   REMARKS
NEW YORK CITY  SUNNY     64  52  64 W9        29.82R
PHILADELPHIA   MOSUNNY   64  50  60 W13       29.88R
PITTSBURGH     CLOUDY    52  44  74 NW13      30.07R
ROANOKE        MOCLDY    59  47  64 W6        30.08R
RICHMOND       MOSUNNY   68  46  45 NW7       29.96R
RALEIGH        MOSUNNY   65  53  65 VRB3      30.00R

$$

ANZ530>537-221300-
MARINE OBSERVATIONS

STATION/POSITION TIME  TEMP    WIND        PRES
                       AIR SEA DIR/SP/G
                 (UTC) (F)     (DEG/KT/KT) (MB)
THOMAS PT LIGHT  1200   64 73  310/ 14/ 16 1014.6R
BALT KEY BRIDGE  1200   64     270/ 13/ 16 1013.2R
COVE POINT       1200   66     330/ 11/ 15 1013.4R
LEWISETTA        1200   66 74  250/  6/  7 1013.6R
SOLOMONS ISLAND  1200      75                N/A
PINEY POINT      1200          340/ 22/ 25   N/A

$$



USA.gov is the U.S. government's official web portal to all federal, state and local government web resources and services.